Regional Weather Roundup
Issued by NWS

Home | Current Version | Previous Version | Graphics & Text | Print | Product List | Glossary On
Versions: 1 2 3 4 5 6 7 8 9 10 11 12 13 14 15 16 17 18 19 20 21 22 23 24 25 26 27 28 29 30 31 32 33 34 35 36 37 38 39 40 41 42 43 44 45 46 47 48 49 50
766
ASUS43 KFSD 270510
RWRSD

WEATHER ROUNDUP FOR SOUTH DAKOTA
NATIONAL WEATHER SERVICE SIOUX FALLS SD
1200 AM CDT TUE SEP 27 2016

NOTE: "FAIR" INDICATES FEW OR NO CLOUDS BELOW 12,000 FEET WITH NO
SIGNIFICANT WEATHER AND/OR OBSTRUCTIONS TO VISIBILITY.


SDZ001>005-009-010-012>017-270600-
NORTHWEST AND NORTH CENTRAL SOUTH DAKOTA

CITY           SKY/WX    TMP DP  RH WIND       PRES   REMARKS
BUFFALO          N/A     50  41  71 SW6       30.09S
FAITH            N/A     55  41  59 NW5       30.13F
MOBRIDGE       CLEAR     43  37  79 CALM      30.06F
$$

SDZ012>016-024>037-041>051-057-063-072>074-270600-
SOUTHWEST AND SOUTH CENTRAL SOUTH DAKOTA

CITY           SKY/WX    TMP DP  RH WIND       PRES   REMARKS
RAPID CTY ARPT CLOUDY    49  40  71 CALM      30.18F
PIERRE         CLEAR     52  39  61 W8        30.09S
CUSTER         CLOUDY    47  38  71 CALM      30.27F
ELLSWORTH AFB  CLOUDY    52  41  64 W3        30.17F
PHILIP         CLOUDY    47  40  76 W6        30.13F
PINE RIDGE     CLOUDY    43  38  82 CALM      30.20F
WINNER         FAIR      54  41  61 W5        30.12S
$$

SDZ004>011-016>023-039-040-270600-
NORTHEAST SOUTH DAKOTA

CITY           SKY/WX    TMP DP  RH WIND       PRES   REMARKS
ABERDEEN       CLEAR     47  36  65 NW5       30.03S
WATERTOWN      CLEAR     52  38  58 NW8       30.01F
BROOKINGS      CLEAR     46  36  68 NW7       30.02S
SISSETON         N/A     54  35  48 NW10      29.96F
$$

SDZ017-020-022-023-036>040-048>070-270600-
SOUTHEAST SOUTH DAKOTA

CITY           SKY/WX    TMP DP  RH WIND       PRES   REMARKS
SIOUX FALLS    CLEAR     51  35  54 W9        30.03F
HURON          CLEAR     44  35  70 NW6       30.05S
CHAMBERLAIN    CLEAR     47  40  78 CALM      30.10S
MITCHELL       CLEAR     50  38  63 W7        30.07S
YANKTON        CLEAR     50  43  76 NW9       30.05F
$$

ABBREVIATIONS USED IN REMARKS
   TC - TEMPERATURE IN CELSIUS
  WCI - WIND CHILL INDEX
   HX - HEAT INDEX
  VSB - VISIBILITY





USA.gov is the U.S. government's official web portal to all federal, state and local government web resources and services.